Regional Weather Roundup
Issued by NWS

Home | Current Version | Previous Version | Text Only | Print | Product List | Glossary On
Versions: 1 2 3 4 5 6 7 8 9 10 11 12 13 14 15 16 17 18 19 20 21 22 23 24 25 26 27 28 29 30 31 32 33 34 35 36 37 38 39 40 41 42 43 44 45 46 47 48 49 50
000
ASUS44 KLIX 020501
RWRLA
LOUISIANA WEATHER ROUNDUP
NATIONAL WEATHER SERVICE NEW ORLEANS LA
1200 AM CDT THU OCT 02 2014

NOTE: "FAIR" INDICATES FEW OR NO CLOUDS BELOW 12,000 FEET WITH NO
      SIGNIFICANT WEATHER AND/OR OBSTRUCTIONS TO VISIBILITY.
      SKY/WX - SKY CONDITION AND SIGNIFICANT WEATHER.
      TMP - AIR TEMPERATURE.    DP   - DEWPOINT TEMPERATURE.
      RH  - RELATIVE HUMIDITY.  PRES - PRESSURE.
      HX  - HEAT INDEX.         WCI  - WIND CHILL INDEX.

*  THESE STATIONS ARE NOT NWS OR FAA STATIONS AND ARE NOT UNDER
   NWS QUALITY CONTROL.

LAZ040-048-061>063-065-066-069-020600-
SOUTHEAST LOUISIANA

CITY           SKY/WX    TMP DP  RH WIND       PRES   REMARKS
N.O. AUDUBON     N/A     78  78 100 MISG        N/A
N.O. INTL ARPT PTCLDY    78  75  90 SE7       29.94S
N.O. LAKEFRONT PTCLDY    78  75  90 SE7       29.95S
N.O. DOWNTOWN* FAIR      79  73  83 S3        29.95S
SLIDELL        PTCLDY    78  74  87 SE3       29.94F
BATON ROUGE    MOCLDY    76  74  93 E3        29.93S
BOOTHVILLE     CLEAR     78  77  96 E5        29.96S
BELLE CHASSE   PTCLDY    79  74  84 SE6       29.94F
BOGALUSA*      MOCLDY    77  72  84 CALM      29.97S
GALLIANO*      NOT AVBL
NEW ROADS*     CLOUDY    76  75  97 SE5       29.92S
GONZALES*      MOCLDY    77  77 100 S6        29.93S
HAMMOND*       NOT AVBL
HOUMA*         CLEAR    N/A N/A N/A CALM      29.94S
PORT FOURCHON* PTCLDY    81  75  83 SE6       29.97F

$$

LAZ041-044-053-054-020600-
SOUTHWEST LOUISIANA

CITY           SKY/WX    TMP DP  RH WIND       PRES   REMARKS
LAKE CHARLES   PTCLDY    79  78  97 S6        29.88S
LAFAYETTE      MOCLDY    76  76 100 S3        29.91S
PATTERSON      MOCLDY    77  75  94 SE5       29.95F
SALT POINT       N/A     81  78  91 SE3       29.91F
NEW IBERIA     MOCLDY    78  76  93 SE7       29.92S
CHENAULT AIRPK PTCLDY    77  77  98 S6        29.89S

$$

LAZ027-028-020600-
CENTRAL LOUISIANA

CITY           SKY/WX    TMP DP  RH WIND       PRES   REMARKS
FORT POLK      CLOUDY    76  75  95 S7        29.88F
ALEXANDRIA INT CLOUDY    77  75  93 SE8       29.88S
ALEXANDRIA     CLOUDY    77  74  90 S7        29.90S

$$

LAZ001-002-020600-
NORTHWEST LOUISIANA

CITY           SKY/WX    TMP DP  RH WIND       PRES   REMARKS
SHREVEPORT     PTCLDY    77  73  87 S7        29.84F
BARKSDALE AFB  CLEAR     76  73  91 S9        29.85S
DTN SHREVEPORT CLEAR     76  72  87 S8        29.85S

$$

LAZ014-016-020600-
NORTHEAST LOUISIANA

CITY           SKY/WX    TMP DP  RH WIND       PRES   REMARKS
MONROE         CLEAR     76  73  91 VRB5      29.89F
TALLULAH       MOCLDY    77  72  84 S10       29.91S

$$



USA.gov is the U.S. government's official web portal to all federal, state and local government web resources and services.